Regional Weather Roundup
Issued by NWS

Home | Current Version | Previous Version | Text Only | Print | Product List | Glossary On
Versions: 1 2 3 4 5 6 7 8 9 10 11 12 13 14 15 16 17 18 19 20 21 22 23 24 25 26 27 28 29 30 31 32 33 34 35 36 37 38 39 40 41 42 43 44 45 46 47 48 49 50
000
ASUS43 KIND 211209
RWRIN

WEATHER ROUNDUP FOR INDIANA
NATIONAL WEATHER SERVICE INDIANAPOLIS IN
800 AM EDT TUE APR 21 2015

NOTE: "FAIR" INDICATES FEW OR NO CLOUDS BELOW 12,000 FEET WITH NO
SIGNIFICANT WEATHER AND/OR OBSTRUCTIONS TO VISIBILITY.

* - STATION DOES NOT REPORT WEATHER SUCH AS PRECIPITATION OR FOG.

+ - STATION NOT QUALITY CONTROLLED BY THE NATIONAL WEATHER SERVICE.
    USE DATA WITH CAUTION...ESPECIALLY DEWPOINT AND RELATIVE
    HUMIDITY OBSERVATIONS.

INZ001>003-010>013-019-020-211300-
NORTHWEST INDIANA

CITY           SKY/WX    TMP DP  RH WIND       PRES   REMARKS
GARY /AIRPORT/ CLEAR     43  25  49 SW14      29.64R
KNOX *+        MOSUNNY   39  21  48 W15G21    29.65R
LA PORTE +     SUNNY     41  33  72 SW13      29.64R
6HR MIN TEMP:  39; 6HR MAX TEMP:  44;

MICHIGAN CITY+ SUNNY     41  27  56 SW13G22   29.64R
MONTICELLO +   SUNNY     39  34  82 SW10      29.70S
6HR MIN TEMP:  38; 6HR MAX TEMP:  41;

RENSSELAER +   SUNNY     39  34  81 SW10      29.69S
VALPARAISO     SUNNY     39  31  72 SW14      29.65R
6HR MIN TEMP:  38; 6HR MAX TEMP:  42; 6HR PCP: TRACE;


$$

LMZ046-743>745-211300-
SOUTHERN LAKE MICHIGAN

STATION/POSITION TIME  TEMP    WIND        PRES    WAVE
                       AIR SEA DIR/SP/G            HT
                 (UTC) (F)     (DEG/KT/KT) (MB)    (FT)
BURNS HARBOR     1200   43     240/ 20/ 23 1004.1S
MICHIGAN CITY    1200   42     210/ 25/ 30   N/A
5NW MICH CITY    1200   43 45  260/ 19/ 31   N/A     5

$$

INZ004-005-014>016-021>024-211300-
NORTH CENTRAL INDIANA

CITY           SKY/WX    TMP DP  RH WIND       PRES   REMARKS
ELKHART        SUNNY     41  28  60 SW15G23   29.62R
GOSHEN         SUNNY     40  33  76 SW17G24   29.63R
6HR MIN TEMP:  39; 6HR MAX TEMP:  43; 6HR PCP:  0.01;

LOGANSPORT +   SUNNY     39  34  81 SW14      29.70F
PERU/GRISSOM   SUNNY     40  34  80 SW12      29.69S
6HR MIN TEMP:  38; 6HR MAX TEMP:  42;

ROCHESTER +    SUNNY     43  36  75 SW12      29.67S
SOUTH BEND     SUNNY     41  31  67 SW15G23   29.62S
6HR MIN TEMP:  40; 6HR MAX TEMP:  44; 6HR PCP: TRACE;

WARSAW +       MOSUNNY   41  32  70 SW14      29.65R

$$

INZ006>009-017-018-025>027-211300-
NORTHEAST INDIANA

CITY           SKY/WX    TMP DP  RH WIND       PRES   REMARKS
ANGOLA *+      SUNNY     41  34  75 W17       29.61R
AUBURN +       MOSUNNY   41  32  70 SW10G20   29.65S
FORT WAYNE     MOSUNNY   42  34  73 SW16      29.68R
6HR MIN TEMP:  37; 6HR MAX TEMP:  43; 6HR PCP: TRACE;

HUNTINGTON +   FAIR      42  30  62 W14       29.68S
6HR MIN TEMP:  40; 6HR MAX TEMP:  42;


$$

INZ028-029-035-036-043>045-051>053-211300-
WEST CENTRAL INDIANA

CITY           SKY/WX    TMP DP  RH WIND       PRES   REMARKS
CRAWFORDSVL +  SUNNY     40  29  65 SW12      29.74S
6HR MIN TEMP:  38; 6HR MAX TEMP:  41;

GREENCASTLE +  SUNNY     41  30  65 SW6       29.77R
LAFAYETTE      SUNNY     39  33  79 SW6       29.72S
6HR MIN TEMP:  38; 6HR MAX TEMP:  42;

TERRE HAUTE    CLEAR     44  33  65 SW10      29.78S
6HR MIN TEMP:  42; 6HR MAX TEMP:  45;


$$

INZ030>032-037>040-046>048-054>057-064-065-211300-
CENTRAL INDIANA

CITY           SKY/WX    TMP DP  RH WIND       PRES   REMARKS
CP ATTERBURY + SUNNY     45  32  61 SW8       29.78S
COLUMBUS       SUNNY     41  32  70 SW9       29.79R
FISHERS *+     SUNNY     43  36  75 SW9       29.74S
FRANKFORT +    SUNNY     40  34  77 SW12      29.74R
6HR MIN TEMP:  38; 6HR MAX TEMP:  42;

GREENWOOD *+   SUNNY     45  30  57 W12G17    29.77
INDIANAPOLIS   SUNNY     43  32  65 SW14      29.74R
6HR MIN TEMP:  41; 6HR MAX TEMP:  44;

-EAGLE CREEK   SUNNY     44  32  62 SW9       29.74R
6HR MIN TEMP:  42; 6HR MAX TEMP:  45;

KOKOMO *+      SUNNY     43  32  65 W14       29.71S
6HR MIN TEMP:  41; 6HR MAX TEMP:  43;

MARION +       SUNNY     41  32  72 SW12      29.71S
MT COMFORT *+  SUNNY     43  27  52 SW12      29.75R
SHELBYVILLE    SUNNY     45  34  65 SW9       29.76R
6HR MIN TEMP:  43; 6HR MAX TEMP:  48;

ZIONSVILLE +   SUNNY     43  32  64 W13       29.74R
6HR MIN TEMP:  42; 6HR MAX TEMP:  44;


$$

INZ033-034-041-042-049-050-058-059-211300-
EAST CENTRAL INDIANA

CITY           SKY/WX    TMP DP  RH WIND       PRES   REMARKS
MUNCIE         SUNNY     43  33  68 SW8       29.72S
6HR MIN TEMP:  42; 6HR MAX TEMP:  46;


$$

INZ060-061-067>069-081>083-085>088-211300-
SOUTHWEST INDIANA

CITY           SKY/WX    TMP DP  RH WIND       PRES   REMARKS
EVANSVILLE     CLEAR     47  38  71 SW8       29.88R
6HR MIN TEMP:  43; 6HR MAX TEMP:  47;

HUNTINGBURG *+ CLEAR     45  34  65 SW10      29.86R
6HR MIN TEMP:  43; 6HR MAX TEMP:  45;

WASHINGTON +   CLEAR     47  29  50 SW9       29.82S
6HR MIN TEMP:  45; 6HR MAX TEMP:  47;


$$

INZ062-063-066-070>080-084-089>092-211300-
SOUTH CENTRAL AND SOUTHEAST INDIANA

CITY           SKY/WX    TMP DP  RH WIND       PRES   REMARKS
BLOOMINGTON    FAIR      46  32  58 SW13      29.79R
6HR MIN TEMP:  43; 6HR MAX TEMP:  46;

MADISON *+     SUNNY     45  32  61 SW12      29.84R
NORTH VERNON + SUNNY     43  34  70 S9        29.81R

$$




USA.gov is the U.S. government's official web portal to all federal, state and local government web resources and services.